Location: Oshawa
(43.9000°N, 78.8670°W)
Time: 23:44:35
(UTC-04:00)

Cosmos 1805 Rocket - Visible Passes

Search period start: 31 July 2014 00:00
Search period end: 10 August 2014 00:00
Orbit: 609 x 631 km, 82.5° (Epoch: 31 July)

Date Brightness Start Highest point End Pass type
(mag) Time Alt. Az. Time Alt. Az. Time Alt. Az.
31 Jul 5.1 02:13:53 10° NNE 02:17:48 29° ENE 02:18:33 27° E visible
31 Jul 4.7 03:51:52 10° NNW 03:55:35 26° W 03:55:42 26° W visible
01 Aug 4.1 02:31:10 10° N 02:35:33 52° ENE 02:35:43 52° E visible
01 Aug 5.5 04:10:27 10° NW 04:12:51 15° W 04:12:51 15° W visible
02 Aug 6.3 01:14:02 10° ENE 01:14:39 10° ENE 01:15:17 10° ENE visible
02 Aug 3.6 02:48:42 10° N 02:52:53 77° NW 02:52:53 77° NW visible
03 Aug 5.7 01:29:30 10° NNE 01:32:36 18° ENE 01:32:56 18° ENE visible
03 Aug 4.3 03:06:29 10° NNW 03:10:05 41° WNW 03:10:05 41° WNW visible
04 Aug 5.0 01:46:27 10° N 01:50:09 31° ENE 01:50:09 31° ENE visible
04 Aug 5.1 03:24:34 10° NW 03:27:18 23° WNW 03:27:18 23° WNW visible
05 Aug 4.4 02:03:45 10° N 02:07:24 49° NE 02:07:24 49° NE visible
05 Aug 5.8 03:43:17 10° NW 03:44:33 13° WNW 03:44:33 13° WNW visible
06 Aug 6.2 00:46:00 10° NE 00:47:19 11° ENE 00:47:30 11° ENE visible
06 Aug 4.3 02:21:19 10° NNW 02:24:39 49° NNW 02:24:39 49° NNW visible
07 Aug 5.7 01:02:00 10° NNE 01:04:46 19° ENE 01:04:46 19° ENE visible
07 Aug 4.9 02:39:08 10° NNW 02:41:55 31° NW 02:41:55 31° NW visible
08 Aug 5.2 01:19:00 10° N 01:22:03 30° NE 01:22:03 30° NE visible
08 Aug 5.6 02:57:16 10° NW 02:59:12 19° WNW 02:59:12 19° WNW visible
09 Aug 4.8 01:36:21 10° N 01:39:21 40° NNE 01:39:21 40° NNE visible
09 Aug 6.1 03:16:09 10° WNW 03:16:30 11° WNW 03:16:30 11° WNW visible
